Regional Weather Roundup
Issued by NWS New Orleans/Baton Rouge, LA

Home | Current Version | Previous Version | Text Only | Print | Product List | Glossary On
Versions: 1 2 3 4 5 6 7 8 9 10 11 12 13 14 15 16 17 18 19 20 21 22 23 24 25 26 27 28 29 30 31 32 33 34 35 36 37 38 39 40 41 42 43 44 45 46 47 48 49 50
444
ASUS44 KLIX 251801
RWRLIX
NEW ORLEANS REGIONAL WEATHER ROUNDUP
NATIONAL WEATHER SERVICE NEW ORLEANS LA
100 PM CDT SAT OCT 25 2014

NOTE: "FAIR" INDICATES FEW OR NO CLOUDS BELOW 12,000 FEET WITH NO
      SIGNIFICANT WEATHER AND/OR OBSTRUCTIONS TO VISIBILITY.
      SKY/WX - SKY CONDITION AND SIGNIFICANT WEATHER.
      TMP - AIR TEMPERATURE.     DP    - DEWPOINT TEMPERATURE.
      RH  - RELATIVE HUMIDITY.   PRES  - PRESSURE.
      HI  - HEAT INDEX.          WCI   - WIND CHILL INDEX.

*  THESE STATIONS ARE NOT NWS OR FAA STATIONS AND ARE NOT UNDER
   NWS QUALITY CONTROL.

LAZ038-040-048-061>063-065>067-069-251900-
SOUTHEAST LOUISIANA

CITY           SKY/WX    TMP DP  RH WIND       PRES   REMARKS
N.O. AUDUBON     N/A     80  56  42 MISG        N/A
6HR MIN TEMP:  56; 6HR MAX TEMP:  79;

N.O. INTL ARPT SUNNY     75  49  39 NE6       30.13F
6HR MIN TEMP:  55; 6HR MAX TEMP:  76;

N.O. LAKEFRONT SUNNY     72  54  53 NW7       30.14F
6HR MIN TEMP:  64; 6HR MAX TEMP:  73;

N.O. DOWNTOWN*   N/A     77  50  38 CALM      30.14F
6HR MIN TEMP:  63; 6HR MAX TEMP:  79;

SLIDELL        SUNNY     77  53  43 VRB3      30.12F
6HR MIN TEMP:  44; 6HR MAX TEMP:  77;

BATON ROUGE    SUNNY     78  54  43 NW5       30.14F
6HR MIN TEMP:  46; 6HR MAX TEMP:  78;

BOOTHVILLE     SUNNY     73  55  53 VRB7      30.13F
6HR MIN TEMP:  67; 6HR MAX TEMP:  74;

BELLE CHASSE   SUNNY     75  50  41 VRB5      30.13F
6HR MIN TEMP:  49; 6HR MAX TEMP:  76;

BOGALUSA*        N/A     79  53  40 N8        30.14F
6HR MIN TEMP:  44; 6HR MAX TEMP:  79;

NEW ROADS*       N/A     76  54  45 CALM      30.15F
6HR MIN TEMP:  45; 6HR MAX TEMP:  76;

GONZALES*        N/A     77  55  47 N3        30.13F
6HR MIN TEMP:  48; 6HR MAX TEMP:  77;

HAMMOND*       NOT AVBL
HOUMA*         NOT AVBL
PORT FOURCHON* CLEAR     73  54  49 NE13      30.16F

$$

MSZ070-080>082-251900-
SOUTHERN MISSISSIPPI

CITY           SKY/WX    TMP DP  RH WIND       PRES   REMARKS
MCCOMB         SUNNY     76  54  46 N9        30.14F
6HR MIN TEMP:  48; 6HR MAX TEMP:  77;

GULFPORT       SUNNY     77  53  43 NW8       30.10F
6HR MIN TEMP:  48; 6HR MAX TEMP:  77;

BILOXI         SUNNY     77  54  44 NE6       30.10F
6HR MIN TEMP:  53; 6HR MAX TEMP:  77;

PASCAGOULA     SUNNY     77  53  43 NE12G21   30.10F
6HR MIN TEMP:  41; 6HR MAX TEMP:  77;

STENNIS ARPT*  SUNNY     77  48  36 N6        30.12F

$$

COASTAL OBSERVATIONS
LAKE AND NEARSHORE STATIONS

STATION/POSITION TIME  TEMP    WIND        PRES    WAVE
                       AIR SEA DIR/SP/G            HT/PER
                 (UTC) (F)     (DEG/KT/KT) (MB)    (FT/S)
PASCAGOULA       1700   74      10/  8/ 14 1019.0
WAVELAND YACHT   1700   71      20/  2/  3 1019.4
GRAND ISLE       1700   71 71   40/  7/  9 1021.0
SOUTHWEST PASS   1700   76 80  360/ 12/ 14 1020.4
NEW CANAL        1700   67 70   10/  4/  4 1021.1
SHELL BEACH      1700   69 66   10/  7/  8 1020.4

OFFSHORE STATIONS

STATION/POSITION TIME  TEMP    WIND        PRES    WAVE
                       AIR SEA DIR/SP/G            HT/PER
                 (UTC) (F)     (DEG/KT/KT) (MB)    (FT/S)
64 S DAUPHIN ISL 1740   71 78   10/ 14/ 17 1019.8    3/ 5

$$




USA.gov is the U.S. government's official web portal to all federal, state and local government web resources and services.